Time,TemperatureF,DewpointF,PressureIn,WindDirection,WindDirectionDegrees,WindSpeedMPH,WindSpeedGustMPH,Humidity,HourlyPrecipIn,Conditions,Clouds,dailyrainin,SoftwareType,DateUTC
2013-04-30 00:02:00,53.0,46.0,30.23,East,93,0.0,7.0,77,0.00,,,0.00,,2013-04-30 04:02:00,
2013-04-30 00:12:00,53.0,46.0,30.23,ENE,75,1.0,2.0,77,0.00,,,0.00,,2013-04-30 04:12:00,
2013-04-30 00:22:00,53.0,46.0,30.23,ENE,75,1.0,2.0,77,0.00,,,0.00,,2013-04-30 04:22:00,
2013-04-30 00:32:00,53.0,47.0,30.22,East,99,2.0,5.0,79,0.00,,,0.00,,2013-04-30 04:32:00,
2013-04-30 00:42:00,53.0,47.0,30.22,East,99,2.0,5.0,79,0.00,,,0.00,,2013-04-30 04:42:00,
2013-04-30 00:52:00,53.0,46.0,30.22,SE,126,1.0,5.0,78,0.00,,,0.00,,2013-04-30 04:52:00,
2013-04-30 01:02:00,53.0,46.0,30.22,East,86,1.0,5.0,78,0.00,,,0.00,,2013-04-30 05:02:00,
2013-04-30 01:12:00,53.0,46.0,30.22,East,86,1.0,5.0,78,0.00,,,0.00,,2013-04-30 05:12:00,
2013-04-30 01:22:00,53.0,46.0,30.22,East,90,1.0,5.0,78,0.00,,,0.00,,2013-04-30 05:22:00,
2013-04-30 01:31:00,53.0,47.0,30.22,East,90,1.0,5.0,79,0.00,,,0.00,,2013-04-30 05:31:00,
2013-04-30 01:42:00,53.0,47.0,30.22,East,90,1.0,5.0,79,0.00,,,0.00,,2013-04-30 05:42:00,
2013-04-30 01:51:00,53.0,47.0,30.22,ENE,76,1.0,5.0,79,0.00,,,0.00,,2013-04-30 05:51:00,
2013-04-30 02:02:00,53.0,47.0,30.22,ESE,110,1.0,5.0,79,0.00,,,0.00,,2013-04-30 06:02:00,
2013-04-30 02:12:00,53.0,47.0,30.22,East,96,1.0,5.0,80,0.00,,,0.00,,2013-04-30 06:12:00,
2013-04-30 02:21:00,53.0,47.0,30.22,East,96,1.0,5.0,80,0.00,,,0.00,,2013-04-30 06:21:00,
2013-04-30 02:32:00,52.0,46.0,30.22,ENE,61,1.0,5.0,80,0.00,,,0.00,,2013-04-30 06:32:00,
2013-04-30 02:41:00,52.0,46.0,30.22,ENE,61,1.0,5.0,80,0.00,,,0.00,,2013-04-30 06:41:00,
2013-04-30 02:52:00,52.0,46.0,30.22,East,94,1.0,5.0,80,0.00,,,0.00,,2013-04-30 06:52:00,
2013-04-30 03:01:00,52.0,46.0,30.21,East,82,1.0,5.0,80,0.00,,,0.00,,2013-04-30 07:01:00,
2013-04-30 03:11:00,52.0,46.0,30.21,East,82,1.0,5.0,80,0.00,,,0.00,,2013-04-30 07:11:00,
2013-04-30 03:21:00,52.0,46.0,30.21,East,97,3.0,7.0,79,0.00,,,0.00,,2013-04-30 07:21:00,
2013-04-30 03:31:00,52.0,46.0,30.22,ENE,76,2.0,7.0,81,0.00,,,0.00,,2013-04-30 07:31:00,
2013-04-30 03:42:00,52.0,46.0,30.22,ENE,76,2.0,7.0,81,0.00,,,0.00,,2013-04-30 07:42:00,
2013-04-30 03:52:00,52.0,46.0,30.22,East,90,2.0,7.0,81,0.00,,,0.00,,2013-04-30 07:52:00,
2013-04-30 04:02:00,52.0,46.0,30.22,ESE,116,3.0,7.0,79,0.00,,,0.00,,2013-04-30 08:02:00,
2013-04-30 04:11:00,52.0,46.0,30.22,ESE,116,3.0,7.0,79,0.00,,,0.00,,2013-04-30 08:11:00,
2013-04-30 04:22:00,52.0,46.0,30.22,ESE,103,1.0,7.0,80,0.00,,,0.00,,2013-04-30 08:22:00,
2013-04-30 04:32:00,52.0,46.0,30.22,ESE,110,2.0,7.0,79,0.00,,,0.00,,2013-04-30 08:32:00,
2013-04-30 04:42:00,52.0,46.0,30.22,ESE,110,2.0,7.0,79,0.00,,,0.00,,2013-04-30 08:42:00,
2013-04-30 04:52:00,52.0,46.0,30.23,East,94,1.0,7.0,80,0.00,,,0.00,,2013-04-30 08:52:00,
2013-04-30 05:01:00,52.0,46.0,30.23,ESE,119,1.0,7.0,79,0.00,,,0.00,,2013-04-30 09:01:00,
2013-04-30 05:11:00,52.0,46.0,30.23,ESE,119,1.0,7.0,79,0.00,,,0.00,,2013-04-30 09:11:00,
2013-04-30 05:22:00,52.0,46.0,30.23,NE,48,2.0,7.0,80,0.00,,,0.00,,2013-04-30 09:22:00,
2013-04-30 05:33:00,52.0,46.0,30.23,East,88,2.0,7.0,79,0.00,,,0.00,,2013-04-30 09:33:00,
2013-04-30 05:43:00,52.0,46.0,30.23,East,88,2.0,7.0,79,0.00,,,0.00,,2013-04-30 09:43:00,
2013-04-30 05:52:00,52.0,46.0,30.23,East,99,2.0,7.0,80,0.00,,,0.00,,2013-04-30 09:52:00,
2013-04-30 06:03:00,52.0,46.0,30.24,East,95,2.0,7.0,81,0.00,,,0.00,,2013-04-30 10:03:00,
2013-04-30 06:12:00,52.0,46.0,30.24,East,95,2.0,7.0,81,0.00,,,0.00,,2013-04-30 10:12:00,
2013-04-30 06:22:00,51.0,45.0,30.24,ESE,103,5.0,7.0,81,0.00,,,0.00,,2013-04-30 10:22:00,
2013-04-30 06:32:00,51.0,45.0,30.25,ENE,71,1.0,7.0,81,0.00,,,0.00,,2013-04-30 10:32:00,
2013-04-30 06:41:00,51.0,45.0,30.25,ENE,71,1.0,7.0,81,0.00,,,0.00,,2013-04-30 10:41:00,
2013-04-30 06:52:00,51.0,45.0,30.25,ENE,70,2.0,7.0,80,0.00,,,0.00,,2013-04-30 10:52:00,
2013-04-30 07:02:00,52.0,46.0,30.25,East,100,2.0,7.0,79,0.00,,,0.00,,2013-04-30 11:02:00,
2013-04-30 07:11:00,52.0,46.0,30.25,East,100,2.0,7.0,79,0.00,,,0.00,,2013-04-30 11:11:00,
2013-04-30 07:21:00,52.0,46.0,30.26,ENE,78,3.0,7.0,80,0.00,,,0.00,,2013-04-30 11:21:00,
2013-04-30 07:31:00,52.0,46.0,30.27,East,96,3.0,10.0,79,0.00,,,0.00,,2013-04-30 11:31:00,
2013-04-30 07:42:00,52.0,46.0,30.27,East,96,3.0,10.0,79,0.00,,,0.00,,2013-04-30 11:42:00,
2013-04-30 07:51:00,52.0,45.0,30.27,ESE,106,1.0,10.0,78,0.00,,,0.00,,2013-04-30 11:51:00,
2013-04-30 08:01:00,52.0,45.0,30.27,ESE,102,5.0,10.0,76,0.00,,,0.00,,2013-04-30 12:01:00,
2013-04-30 08:11:00,52.0,45.0,30.27,ESE,102,5.0,10.0,76,0.00,,,0.00,,2013-04-30 12:11:00,
2013-04-30 08:21:00,52.0,44.0,30.28,ESE,119,3.0,10.0,74,0.00,,,0.00,,2013-04-30 12:21:00,
2013-04-30 08:31:00,53.0,43.0,30.29,ESE,107,3.0,10.0,70,0.00,,,0.00,,2013-04-30 12:31:00,
2013-04-30 08:41:00,53.0,43.0,30.29,ESE,107,3.0,10.0,70,0.00,,,0.00,,2013-04-30 12:41:00,
2013-04-30 08:51:00,53.0,42.0,30.29,ENE,75,1.0,10.0,67,0.00,,,0.00,,2013-04-30 12:51:00,
2013-04-30 09:01:00,54.0,43.0,30.29,East,97,2.0,10.0,66,0.00,,,0.00,,2013-04-30 13:01:00,
2013-04-30 09:11:00,54.0,43.0,30.29,East,97,2.0,10.0,66,0.00,,,0.00,,2013-04-30 13:11:00,
2013-04-30 09:21:00,56.0,43.0,30.29,East,89,2.0,10.0,62,0.00,,,0.00,,2013-04-30 13:21:00,
2013-04-30 09:31:00,58.0,45.0,30.29,SE,124,3.0,10.0,61,0.00,,,0.00,,2013-04-30 13:31:00,
2013-04-30 09:41:00,58.0,45.0,30.29,SE,124,3.0,10.0,61,0.00,,,0.00,,2013-04-30 13:41:00,
2013-04-30 09:52:00,59.0,45.0,30.29,East,99,3.0,10.0,60,0.00,,,0.00,,2013-04-30 13:52:00,
2013-04-30 10:02:00,59.0,46.0,30.30,SE,126,2.0,10.0,63,0.00,,,0.00,,2013-04-30 14:02:00,
2013-04-30 10:11:00,59.0,47.0,30.31,East,91,5.0,10.0,64,0.00,,,0.00,,2013-04-30 14:11:00,
2013-04-30 10:21:00,59.0,47.0,30.31,East,91,5.0,10.0,64,0.00,,,0.00,,2013-04-30 14:21:00,
2013-04-30 10:31:00,57.0,47.0,30.31,SE,145,5.0,10.0,70,0.00,,,0.00,,2013-04-30 14:31:00,
2013-04-30 10:41:00,57.0,47.0,30.31,SE,145,5.0,10.0,70,0.00,,,0.00,,2013-04-30 14:41:00,
2013-04-30 10:52:00,57.0,47.0,30.31,East,83,5.0,12.0,69,0.00,,,0.00,,2013-04-30 14:52:00,
2013-04-30 11:01:00,59.0,47.0,30.30,ENE,78,5.0,14.0,65,0.00,,,0.00,,2013-04-30 15:01:00,
2013-04-30 11:11:00,59.0,47.0,30.30,ENE,78,5.0,14.0,65,0.00,,,0.00,,2013-04-30 15:11:00,
2013-04-30 11:21:00,60.0,46.0,30.30,East,80,5.0,14.0,59,0.00,,,0.00,,2013-04-30 15:21:00,
2013-04-30 11:32:00,60.0,46.0,30.30,ESE,123,5.0,14.0,59,0.00,,,0.00,,2013-04-30 15:32:00,
2013-04-30 11:42:00,60.0,46.0,30.30,ESE,123,5.0,14.0,59,0.00,,,0.00,,2013-04-30 15:42:00,
2013-04-30 11:52:00,60.0,46.0,30.30,SE,145,5.0,14.0,59,0.00,,,0.00,,2013-04-30 15:52:00,
2013-04-30 12:02:00,61.0,47.0,30.30,ESE,114,3.0,14.0,61,0.00,,,0.00,,2013-04-30 16:02:00,
2013-04-30 12:12:00,61.0,47.0,30.30,ESE,114,3.0,14.0,61,0.00,,,0.00,,2013-04-30 16:12:00,
2013-04-30 12:23:00,61.0,45.0,30.29,ENE,76,5.0,14.0,55,0.00,,,0.00,,2013-04-30 16:23:00,
2013-04-30 12:33:00,61.0,47.0,30.29,SSE,157,3.0,14.0,59,0.00,,,0.00,,2013-04-30 16:33:00,
2013-04-30 12:42:00,61.0,47.0,30.29,SSE,157,3.0,14.0,59,0.00,,,0.00,,2013-04-30 16:42:00,
2013-04-30 12:52:00,61.0,45.0,30.29,ESE,115,2.0,14.0,56,0.00,,,0.00,,2013-04-30 16:52:00,
2013-04-30 13:02:00,61.0,44.0,30.29,SE,133,3.0,14.0,53,0.00,,,0.00,,2013-04-30 17:02:00,
2013-04-30 13:12:00,61.0,43.0,30.29,East,97,6.0,14.0,51,0.00,,,0.00,,2013-04-30 17:12:00,
2013-04-30 13:22:00,61.0,43.0,30.29,East,97,6.0,14.0,51,0.00,,,0.00,,2013-04-30 17:22:00,
2013-04-30 13:32:00,60.0,41.0,30.29,ESE,119,8.0,14.0,50,0.00,,,0.00,,2013-04-30 17:32:00,
2013-04-30 13:42:00,60.0,42.0,30.29,ESE,111,6.0,14.0,51,0.00,,,0.00,,2013-04-30 17:42:00,
2013-04-30 13:52:00,60.0,42.0,30.29,ESE,111,6.0,14.0,51,0.00,,,0.00,,2013-04-30 17:52:00,
2013-04-30 14:01:00,60.0,40.0,30.29,ESE,110,6.0,14.0,48,0.00,,,0.00,,2013-04-30 18:01:00,
2013-04-30 14:11:00,60.0,39.0,30.29,ESE,121,6.0,14.0,45,0.00,,,0.00,,2013-04-30 18:11:00,
2013-04-30 14:22:00,60.0,39.0,30.29,ESE,121,6.0,14.0,45,0.00,,,0.00,,2013-04-30 18:22:00,
2013-04-30 14:32:00,60.0,37.0,30.29,ESE,121,3.0,14.0,42,0.00,,,0.00,,2013-04-30 18:32:00,
2013-04-30 14:42:00,60.0,34.0,30.29,East,98,6.0,14.0,38,0.00,,,0.00,,2013-04-30 18:42:00,
2013-04-30 14:52:00,60.0,34.0,30.29,East,98,6.0,14.0,38,0.00,,,0.00,,2013-04-30 18:52:00,
2013-04-30 15:01:00,62.0,33.0,30.29,SE,128,5.0,14.0,34,0.00,,,0.00,,2013-04-30 19:01:00,
2013-04-30 15:11:00,62.0,33.0,30.29,ENE,71,7.0,14.0,33,0.00,,,0.00,,2013-04-30 19:11:00,
2013-04-30 15:22:00,62.0,33.0,30.29,ENE,71,7.0,14.0,33,0.00,,,0.00,,2013-04-30 19:22:00,
2013-04-30 15:32:00,62.0,30.0,30.30,ENE,78,6.0,17.0,30,0.00,,,0.00,,2013-04-30 19:32:00,
2013-04-30 15:42:00,62.0,32.0,30.29,East,96,5.0,17.0,32,0.00,,,0.00,,2013-04-30 19:42:00,
2013-04-30 15:52:00,62.0,32.0,30.29,East,96,5.0,17.0,32,0.00,,,0.00,,2013-04-30 19:52:00,
2013-04-30 16:02:00,61.0,30.0,30.30,ESE,112,6.0,17.0,31,0.00,,,0.00,,2013-04-30 20:02:00,
2013-04-30 16:11:00,61.0,30.0,30.30,ESE,112,6.0,17.0,31,0.00,,,0.00,,2013-04-30 20:11:00,
2013-04-30 16:21:00,61.0,30.0,30.29,East,88,6.0,17.0,31,0.00,,,0.00,,2013-04-30 20:21:00,
2013-04-30 16:32:00,62.0,31.0,30.29,SSE,148,5.0,17.0,31,0.00,,,0.00,,2013-04-30 20:32:00,
2013-04-30 16:42:00,62.0,31.0,30.29,SSE,148,5.0,17.0,31,0.00,,,0.00,,2013-04-30 20:42:00,
2013-04-30 16:52:00,62.0,29.0,30.29,SE,134,5.0,17.0,29,0.00,,,0.00,,2013-04-30 20:52:00,
2013-04-30 17:02:00,62.0,29.0,30.30,ENE,76,3.0,17.0,29,0.00,,,0.00,,2013-04-30 21:02:00,
2013-04-30 17:11:00,62.0,28.0,30.30,East,86,3.0,17.0,27,0.00,,,0.00,,2013-04-30 21:11:00,
2013-04-30 17:22:00,62.0,28.0,30.30,East,86,3.0,17.0,27,0.00,,,0.00,,2013-04-30 21:22:00,
2013-04-30 17:32:00,62.0,30.0,30.30,ENE,78,3.0,17.0,30,0.00,,,0.00,,2013-04-30 21:32:00,
2013-04-30 17:42:00,62.0,30.0,30.30,ENE,78,3.0,17.0,30,0.00,,,0.00,,2013-04-30 21:42:00,
2013-04-30 17:53:00,61.0,30.0,30.30,ESE,116,3.0,17.0,31,0.00,,,0.00,,2013-04-30 21:53:00,
2013-04-30 18:02:00,62.0,27.0,30.31,SE,127,2.0,17.0,26,0.00,,,0.00,,2013-04-30 22:02:00,
2013-04-30 18:12:00,62.0,29.0,30.31,ENE,59,3.0,17.0,28,0.00,,,0.00,,2013-04-30 22:12:00,
2013-04-30 18:23:00,62.0,29.0,30.31,ENE,59,3.0,17.0,28,0.00,,,0.00,,2013-04-30 22:23:00,
2013-04-30 18:32:00,61.0,30.0,30.31,ESE,114,2.0,17.0,31,0.00,,,0.00,,2013-04-30 22:32:00,
2013-04-30 18:42:00,61.0,30.0,30.31,ESE,114,2.0,17.0,31,0.00,,,0.00,,2013-04-30 22:42:00,
2013-04-30 18:53:00,61.0,30.0,30.31,ESE,117,3.0,17.0,31,0.00,,,0.00,,2013-04-30 22:53:00,
2013-04-30 19:02:00,60.0,30.0,30.31,ENE,68,2.0,17.0,32,0.00,,,0.00,,2013-04-30 23:02:00,
2013-04-30 19:12:00,60.0,29.0,30.31,ESE,103,2.0,17.0,31,0.00,,,0.00,,2013-04-30 23:12:00,
2013-04-30 19:22:00,60.0,29.0,30.31,ESE,103,2.0,17.0,31,0.00,,,0.00,,2013-04-30 23:22:00,
2013-04-30 19:32:00,58.0,29.0,30.31,East,85,2.0,17.0,33,0.00,,,0.00,,2013-04-30 23:32:00,
2013-04-30 19:42:00,58.0,29.0,30.31,East,85,2.0,17.0,33,0.00,,,0.00,,2013-04-30 23:42:00,
2013-04-30 19:52:00,58.0,31.0,30.31,ESE,123,2.0,17.0,36,0.00,,,0.00,,2013-04-30 23:52:00,
2013-04-30 20:02:00,57.0,34.0,30.31,East,97,1.0,17.0,41,0.00,,,0.00,,2013-05-01 00:02:00,
2013-04-30 20:11:00,57.0,34.0,30.31,East,97,1.0,17.0,41,0.00,,,0.00,,2013-05-01 00:11:00,
2013-04-30 20:22:00,56.0,34.0,30.31,East,85,2.0,17.0,43,0.00,,,0.00,,2013-05-01 00:22:00,
2013-04-30 20:32:00,55.0,36.0,30.32,SE,126,1.0,17.0,48,0.00,,,0.00,,2013-05-01 00:32:00,
2013-04-30 20:42:00,55.0,36.0,30.32,SE,126,1.0,17.0,48,0.00,,,0.00,,2013-05-01 00:42:00,
2013-04-30 20:52:00,55.0,38.0,30.32,SE,124,0.0,17.0,53,0.00,,,0.00,,2013-05-01 00:52:00,
2013-04-30 21:01:00,54.0,40.0,30.32,ESE,123,0.0,17.0,58,0.00,,,0.00,,2013-05-01 01:01:00,
2013-04-30 21:11:00,54.0,40.0,30.32,ESE,123,0.0,17.0,58,0.00,,,0.00,,2013-05-01 01:11:00,
2013-04-30 21:21:00,54.0,41.0,30.32,ESE,123,0.0,17.0,61,0.00,,,0.00,,2013-05-01 01:21:00,
2013-04-30 21:32:00,53.0,40.0,30.33,SE,124,0.0,17.0,62,0.00,,,0.00,,2013-05-01 01:32:00,
2013-04-30 21:42:00,53.0,40.0,30.33,SE,124,0.0,17.0,62,0.00,,,0.00,,2013-05-01 01:42:00,
2013-04-30 21:52:00,53.0,39.0,30.33,SE,124,0.0,17.0,59,0.00,,,0.00,,2013-05-01 01:52:00,
2013-04-30 22:02:00,52.0,35.0,30.34,SE,124,0.0,17.0,52,0.00,,,0.00,,2013-05-01 02:02:00,
2013-04-30 22:11:00,52.0,34.0,30.34,SE,124,0.0,17.0,51,0.00,,,0.00,,2013-05-01 02:11:00,
2013-04-30 22:21:00,52.0,34.0,30.34,SE,124,0.0,17.0,51,0.00,,,0.00,,2013-05-01 02:21:00,
2013-04-30 22:32:00,51.0,34.0,30.34,SE,124,0.0,17.0,51,0.00,,,0.00,,2013-05-01 02:32:00,
2013-04-30 22:42:00,51.0,34.0,30.34,SE,124,0.0,17.0,51,0.00,,,0.00,,2013-05-01 02:42:00,
2013-04-30 22:52:00,51.0,34.0,30.33,SE,124,0.0,17.0,51,0.00,,,0.00,,2013-05-01 02:52:00,
2013-04-30 23:02:00,51.0,36.0,30.33,SE,124,0.0,17.0,56,0.00,,,0.00,,2013-05-01 03:02:00,
2013-04-30 23:11:00,51.0,36.0,30.33,SE,124,0.0,17.0,56,0.00,,,0.00,,2013-05-01 03:11:00,
2013-04-30 23:21:00,49.0,37.0,30.33,SE,124,0.0,17.0,62,0.00,,,0.00,,2013-05-01 03:21:00,
2013-04-30 23:33:00,49.0,38.0,30.33,ESE,123,0.0,17.0,65,0.00,,,0.00,,2013-05-01 03:33:00,
2013-04-30 23:43:00,49.0,38.0,30.33,ESE,123,0.0,17.0,65,0.00,,,0.00,,2013-05-01 03:43:00,
2013-04-30 23:53:00,48.0,38.0,30.33,SE,124,1.0,17.0,67,0.00,,,0.00,,2013-05-01 03:53:00,